Time,TemperatureF,DewpointF,PressureIn,WindDirection,WindDirectionDegrees,WindSpeedMPH,WindSpeedGustMPH,Humidity,HourlyPrecipIn,Conditions,Clouds,dailyrainin,SoftwareType,DateUTC
2013-06-04 00:12:00,54.0,43.0,-100.00,North,0,0.0,-999.0,65,-99.99,,,-99.99,,2013-06-04 05:12:00,
2013-06-04 00:22:00,49.0,30.0,-100.00,North,0,0.0,-999.0,48,-99.99,,,-99.99,,2013-06-04 05:22:00,
2013-06-04 00:32:00,55.0,30.0,-100.00,North,0,0.0,-999.0,38,-99.99,,,-99.99,,2013-06-04 05:32:00,
2013-06-04 01:02:00,59.0,50.0,-100.00,North,0,0.0,-999.0,73,-99.99,,,-99.99,,2013-06-04 06:02:00,
2013-06-04 01:12:00,59.0,50.0,-100.00,North,0,0.0,-999.0,73,-99.99,,,-99.99,,2013-06-04 06:12:00,
2013-06-04 01:22:00,59.0,51.0,-100.00,North,0,0.0,-999.0,74,-99.99,,,-99.99,,2013-06-04 06:22:00,
2013-06-04 01:32:00,58.0,50.0,-100.00,North,0,0.0,-999.0,75,-99.99,,,-99.99,,2013-06-04 06:32:00,
2013-06-04 01:42:00,57.0,45.0,-100.00,North,0,0.0,-999.0,64,-99.99,,,-99.99,,2013-06-04 06:42:00,
2013-06-04 01:52:00,56.0,38.0,-100.00,North,0,0.0,-999.0,52,-99.99,,,-99.99,,2013-06-04 06:52:00,
2013-06-04 02:02:00,52.0,41.0,-100.00,North,0,0.0,-999.0,64,-99.99,,,-99.99,,2013-06-04 07:02:00,
2013-06-04 02:12:00,52.0,41.0,-100.00,North,0,0.0,-999.0,67,-99.99,,,-99.99,,2013-06-04 07:12:00,
2013-06-04 02:22:00,52.0,43.0,-100.00,North,0,0.0,-999.0,70,-99.99,,,-99.99,,2013-06-04 07:22:00,
2013-06-04 02:32:00,37.0,31.0,-100.00,North,0,0.0,-999.0,76,-99.99,,,-99.99,,2013-06-04 07:32:00,
2013-06-04 02:42:00,54.0,47.0,-100.00,North,0,0.0,-999.0,79,-99.99,,,-99.99,,2013-06-04 07:42:00,
2013-06-04 02:52:00,54.0,48.0,-100.00,North,0,0.0,-999.0,79,-99.99,,,-99.99,,2013-06-04 07:52:00,
2013-06-04 03:02:00,46.0,41.0,-100.00,North,0,0.0,-999.0,80,-99.99,,,-99.99,,2013-06-04 08:02:00,
2013-06-04 03:12:00,55.0,49.0,-100.00,North,0,0.0,-999.0,81,-99.99,,,-99.99,,2013-06-04 08:12:00,
2013-06-04 03:22:00,57.0,52.0,-100.00,North,0,0.0,-999.0,82,-99.99,,,-99.99,,2013-06-04 08:22:00,
2013-06-04 03:32:00,57.0,52.0,-100.00,North,0,0.0,-999.0,84,-99.99,,,-99.99,,2013-06-04 08:32:00,
2013-06-04 03:42:00,57.0,52.0,-100.00,North,0,0.0,-999.0,83,-99.99,,,-99.99,,2013-06-04 08:42:00,
2013-06-04 03:52:00,58.0,53.0,-100.00,North,0,0.0,-999.0,84,-99.99,,,-99.99,,2013-06-04 08:52:00,
2013-06-04 04:02:00,57.0,53.0,-100.00,North,0,0.0,-999.0,86,-99.99,,,-99.99,,2013-06-04 09:02:00,
2013-06-04 04:12:00,58.0,53.0,-100.00,North,0,0.0,-999.0,86,-99.99,,,-99.99,,2013-06-04 09:12:00,
2013-06-04 04:22:00,58.0,54.0,-100.00,North,0,0.0,-999.0,86,-99.99,,,-99.99,,2013-06-04 09:22:00,
2013-06-04 04:33:00,58.0,54.0,-100.00,North,0,0.0,-999.0,86,-99.99,,,-99.99,,2013-06-04 09:33:00,
2013-06-04 04:43:00,58.0,54.0,-100.00,North,0,0.0,-999.0,87,-99.99,,,-99.99,,2013-06-04 09:43:00,
2013-06-04 04:53:00,57.0,53.0,-100.00,North,0,0.0,-999.0,87,-99.99,,,-99.99,,2013-06-04 09:53:00,
2013-06-04 05:02:00,57.0,54.0,-100.00,North,0,0.0,-999.0,89,-99.99,,,-99.99,,2013-06-04 10:02:00,
2013-06-04 05:12:00,57.0,54.0,-100.00,North,0,0.0,-999.0,90,-99.99,,,-99.99,,2013-06-04 10:12:00,
2013-06-04 05:23:00,58.0,55.0,-100.00,North,0,0.0,-999.0,90,-99.99,,,-99.99,,2013-06-04 10:23:00,
2013-06-04 05:33:00,57.0,55.0,-100.00,North,0,0.0,-999.0,92,-99.99,,,-99.99,,2013-06-04 10:33:00,
2013-06-04 05:42:00,57.0,56.0,-100.00,North,0,0.0,-999.0,95,-99.99,,,-99.99,,2013-06-04 10:42:00,
2013-06-04 05:52:00,57.0,56.0,-100.00,North,0,0.0,-999.0,96,-99.99,,,-99.99,,2013-06-04 10:52:00,
2013-06-04 06:02:00,57.0,56.0,-100.00,North,0,0.0,-999.0,97,-99.99,,,-99.99,,2013-06-04 11:02:00,
2013-06-04 06:12:00,56.0,56.0,-100.00,North,0,0.0,-999.0,97,-99.99,,,-99.99,,2013-06-04 11:12:00,
2013-06-04 06:22:00,57.0,56.0,-100.00,North,0,0.0,-999.0,97,-99.99,,,-99.99,,2013-06-04 11:22:00,
2013-06-04 06:32:00,57.0,56.0,-100.00,North,0,0.0,-999.0,97,-99.99,,,-99.99,,2013-06-04 11:32:00,
2013-06-04 06:42:00,56.0,55.0,-100.00,North,0,0.0,-999.0,97,-99.99,,,-99.99,,2013-06-04 11:42:00,
2013-06-04 06:52:00,57.0,56.0,-100.00,North,0,0.0,-999.0,97,-99.99,,,-99.99,,2013-06-04 11:52:00,
2013-06-04 07:02:00,56.0,55.0,-100.00,North,0,0.0,-999.0,97,-99.99,,,-99.99,,2013-06-04 12:02:00,
2013-06-04 07:12:00,56.0,56.0,-100.00,North,0,0.0,-999.0,98,-99.99,,,-99.99,,2013-06-04 12:12:00,
2013-06-04 07:22:00,56.0,56.0,-100.00,North,0,0.0,-999.0,98,-99.99,,,-99.99,,2013-06-04 12:22:00,
2013-06-04 07:32:00,56.0,56.0,-100.00,North,0,0.0,-999.0,98,-99.99,,,-99.99,,2013-06-04 12:32:00,
2013-06-04 07:42:00,56.0,56.0,-100.00,North,0,0.0,-999.0,98,-99.99,,,-99.99,,2013-06-04 12:42:00,
2013-06-04 07:52:00,56.0,56.0,-100.00,North,0,0.0,-999.0,98,-99.99,,,-99.99,,2013-06-04 12:52:00,
2013-06-04 08:02:00,56.0,56.0,-100.00,North,0,0.0,-999.0,98,-99.99,,,-99.99,,2013-06-04 13:02:00,
2013-06-04 08:12:00,56.0,56.0,-100.00,North,0,0.0,-999.0,98,-99.99,,,-99.99,,2013-06-04 13:12:00,
2013-06-04 08:22:00,56.0,56.0,-100.00,North,0,0.0,-999.0,98,-99.99,,,-99.99,,2013-06-04 13:22:00,
2013-06-04 08:32:00,56.0,56.0,-100.00,North,0,0.0,-999.0,98,-99.99,,,-99.99,,2013-06-04 13:32:00,
2013-06-04 08:42:00,56.0,56.0,-100.00,North,0,0.0,-999.0,98,-99.99,,,-99.99,,2013-06-04 13:42:00,
2013-06-04 08:52:00,57.0,56.0,-100.00,North,0,0.0,-999.0,98,-99.99,,,-99.99,,2013-06-04 13:52:00,
2013-06-04 09:02:00,56.0,56.0,-100.00,North,0,0.0,-999.0,98,-99.99,,,-99.99,,2013-06-04 14:02:00,
2013-06-04 09:12:00,56.0,56.0,-100.00,North,0,0.0,-999.0,98,-99.99,,,-99.99,,2013-06-04 14:12:00,
2013-06-04 09:22:00,57.0,56.0,-100.00,North,0,0.0,-999.0,98,-99.99,,,-99.99,,2013-06-04 14:22:00,
2013-06-04 09:32:00,57.0,57.0,-100.00,North,0,0.0,-999.0,97,-99.99,,,-99.99,,2013-06-04 14:32:00,
2013-06-04 09:42:00,58.0,57.0,-100.00,North,0,0.0,-999.0,97,-99.99,,,-99.99,,2013-06-04 14:42:00,
2013-06-04 09:52:00,58.0,57.0,-100.00,North,0,0.0,-999.0,97,-99.99,,,-99.99,,2013-06-04 14:52:00,
2013-06-04 10:02:00,57.0,57.0,-100.00,North,0,0.0,-999.0,97,-99.99,,,-99.99,,2013-06-04 15:02:00,
2013-06-04 10:12:00,57.0,56.0,-100.00,North,0,0.0,-999.0,97,-99.99,,,-99.99,,2013-06-04 15:12:00,
2013-06-04 10:22:00,58.0,57.0,-100.00,North,0,0.0,-999.0,97,-99.99,,,-99.99,,2013-06-04 15:22:00,
2013-06-04 10:33:00,58.0,57.0,-100.00,North,0,0.0,-999.0,97,-99.99,,,-99.99,,2013-06-04 15:33:00,
2013-06-04 10:42:00,57.0,57.0,-100.00,North,0,0.0,-999.0,97,-99.99,,,-99.99,,2013-06-04 15:42:00,
2013-06-04 10:53:00,57.0,57.0,-100.00,North,0,0.0,-999.0,97,-99.99,,,-99.99,,2013-06-04 15:53:00,
2013-06-04 11:03:00,57.0,56.0,-100.00,North,0,0.0,-999.0,97,-99.99,,,-99.99,,2013-06-04 16:03:00,
2013-06-04 11:12:00,58.0,57.0,-100.00,North,0,0.0,-999.0,97,-99.99,,,-99.99,,2013-06-04 16:12:00,
2013-06-04 11:23:00,58.0,57.0,-100.00,North,0,0.0,-999.0,97,-99.99,,,-99.99,,2013-06-04 16:23:00,
2013-06-04 11:33:00,58.0,57.0,-100.00,North,0,0.0,-999.0,97,-99.99,,,-99.99,,2013-06-04 16:33:00,
2013-06-04 11:42:00,58.0,57.0,-100.00,North,0,0.0,-999.0,97,-99.99,,,-99.99,,2013-06-04 16:42:00,
2013-06-04 11:52:00,49.0,48.0,-100.00,North,0,0.0,-999.0,97,-99.99,,,-99.99,,2013-06-04 16:52:00,
2013-06-04 12:03:00,47.0,46.0,-100.00,North,0,0.0,-999.0,97,-99.99,,,-99.99,,2013-06-04 17:03:00,
2013-06-04 12:12:00,47.0,47.0,-100.00,North,0,0.0,-999.0,97,-99.99,,,-99.99,,2013-06-04 17:12:00,
2013-06-04 12:23:00,50.0,49.0,-100.00,North,0,0.0,-999.0,97,-99.99,,,-99.99,,2013-06-04 17:23:00,
2013-06-04 12:33:00,51.0,50.0,-100.00,North,0,0.0,-999.0,97,-99.99,,,-99.99,,2013-06-04 17:33:00,
2013-06-04 12:42:00,55.0,55.0,-100.00,North,0,0.0,-999.0,97,-99.99,,,-99.99,,2013-06-04 17:42:00,
2013-06-04 12:52:00,58.0,57.0,-100.00,North,0,0.0,-999.0,97,-99.99,,,-99.99,,2013-06-04 17:52:00,
2013-06-04 13:02:00,61.0,60.0,-100.00,North,0,0.0,-999.0,97,-99.99,,,-99.99,,2013-06-04 18:02:00,
2013-06-04 13:12:00,61.0,60.0,-100.00,North,0,0.0,-999.0,97,-99.99,,,-99.99,,2013-06-04 18:12:00,
2013-06-04 13:22:00,62.0,61.0,-100.00,North,0,0.0,-999.0,97,-99.99,,,-99.99,,2013-06-04 18:22:00,
2013-06-04 13:32:00,62.0,61.0,-100.00,North,0,0.0,-999.0,97,-99.99,,,-99.99,,2013-06-04 18:32:00,
2013-06-04 13:42:00,62.0,61.0,-100.00,North,0,0.0,-999.0,97,-99.99,,,-99.99,,2013-06-04 18:42:00,
2013-06-04 13:52:00,63.0,62.0,-100.00,North,0,0.0,-999.0,97,-99.99,,,-99.99,,2013-06-04 18:52:00,
2013-06-04 14:02:00,63.0,62.0,-100.00,North,0,0.0,-999.0,98,-99.99,,,-99.99,,2013-06-04 19:02:00,
2013-06-04 14:12:00,63.0,62.0,-100.00,North,0,0.0,-999.0,97,-99.99,,,-99.99,,2013-06-04 19:12:00,
2013-06-04 14:22:00,63.0,58.0,-100.00,North,0,0.0,-999.0,84,-99.99,,,-99.99,,2013-06-04 19:22:00,
2013-06-04 14:32:00,63.0,55.0,-100.00,North,-999,0.0,-999.0,74,-99.99,,,-99.99,,2013-06-04 19:32:00,
2013-06-04 14:42:00,63.0,60.0,-100.00,North,0,0.0,-999.0,91,-99.99,,,-99.99,,2013-06-04 19:42:00,
2013-06-04 14:52:00,62.0,60.0,-100.00,North,0,0.0,-999.0,91,-99.99,,,-99.99,,2013-06-04 19:52:00,
2013-06-04 15:03:00,62.0,59.0,-100.00,North,0,0.0,-999.0,90,-99.99,,,-99.99,,2013-06-04 20:03:00,
2013-06-04 15:12:00,62.0,59.0,-100.00,North,0,0.0,-999.0,90,-99.99,,,-99.99,,2013-06-04 20:12:00,
2013-06-04 15:22:00,62.0,59.0,-100.00,North,0,0.0,-999.0,90,-99.99,,,-99.99,,2013-06-04 20:22:00,
2013-06-04 15:32:00,62.0,59.0,-100.00,North,0,0.0,-999.0,90,-99.99,,,-99.99,,2013-06-04 20:32:00,
2013-06-04 15:42:00,62.0,59.0,-100.00,North,0,0.0,-999.0,90,-99.99,,,-99.99,,2013-06-04 20:42:00,
2013-06-04 15:52:00,62.0,59.0,-100.00,North,0,0.0,-999.0,90,-99.99,,,-99.99,,2013-06-04 20:52:00,
2013-06-04 16:02:00,62.0,59.0,-100.00,North,0,0.0,-999.0,90,-99.99,,,-99.99,,2013-06-04 21:02:00,
2013-06-04 16:12:00,63.0,60.0,-100.00,North,0,0.0,-999.0,90,-99.99,,,-99.99,,2013-06-04 21:12:00,
2013-06-04 16:22:00,64.0,61.0,-100.00,North,0,0.0,-999.0,90,-99.99,,,-99.99,,2013-06-04 21:22:00,
2013-06-04 16:33:00,64.0,61.0,-100.00,North,0,0.0,-999.0,90,-99.99,,,-99.99,,2013-06-04 21:33:00,
2013-06-04 16:42:00,65.0,64.0,-100.00,North,0,0.0,-999.0,96,-99.99,,,-99.99,,2013-06-04 21:42:00,
2013-06-04 16:53:00,67.0,66.0,-100.00,North,-999,0.0,-999.0,98,-99.99,,,-99.99,,2013-06-04 21:53:00,
2013-06-04 17:02:00,47.0,47.0,-100.00,North,0,0.0,-999.0,97,-99.99,,,-99.99,,2013-06-04 22:02:00,
2013-06-04 17:12:00,50.0,49.0,-100.00,North,-999,0.0,-999.0,96,-99.99,,,-99.99,,2013-06-04 22:12:00,
2013-06-04 17:22:00,38.0,37.0,-100.00,North,0,0.0,-999.0,95,-99.99,,,-99.99,,2013-06-04 22:22:00,
2013-06-04 17:32:00,44.0,42.0,-100.00,North,0,0.0,-999.0,94,-99.99,,,-99.99,,2013-06-04 22:32:00,
2013-06-04 17:42:00,42.0,41.0,-100.00,North,0,0.0,-999.0,95,-99.99,,,-99.99,,2013-06-04 22:42:00,
2013-06-04 17:52:00,42.0,41.0,-100.00,North,0,0.0,-999.0,95,-99.99,,,-99.99,,2013-06-04 22:52:00,
2013-06-04 18:02:00,54.0,53.0,-100.00,North,0,0.0,-999.0,94,-99.99,,,-99.99,,2013-06-04 23:02:00,
2013-06-04 18:12:00,66.0,64.0,-100.00,North,0,0.0,-999.0,94,-99.99,,,-99.99,,2013-06-04 23:12:00,
2013-06-04 18:22:00,66.0,64.0,-100.00,North,0,0.0,-999.0,94,-99.99,,,-99.99,,2013-06-04 23:22:00,
2013-06-04 18:32:00,66.0,64.0,-100.00,North,0,0.0,-999.0,94,-99.99,,,-99.99,,2013-06-04 23:32:00,
2013-06-04 18:42:00,66.0,64.0,-100.00,North,0,0.0,-999.0,94,-99.99,,,-99.99,,2013-06-04 23:42:00,
2013-06-04 18:52:00,66.0,64.0,-100.00,North,0,0.0,-999.0,94,-99.99,,,-99.99,,2013-06-04 23:52:00,
2013-06-04 19:02:00,66.0,65.0,-100.00,North,0,0.0,-999.0,95,-99.99,,,-99.99,,2013-06-05 00:02:00,
2013-06-04 19:12:00,66.0,65.0,-100.00,North,0,0.0,-999.0,96,-99.99,,,-99.99,,2013-06-05 00:12:00,
2013-06-04 19:22:00,66.0,64.0,-100.00,North,0,0.0,-999.0,95,-99.99,,,-99.99,,2013-06-05 00:22:00,
2013-06-04 19:32:00,66.0,63.0,-100.00,North,0,0.0,-999.0,92,-99.99,,,-99.99,,2013-06-05 00:32:00,
2013-06-04 19:42:00,66.0,61.0,-100.00,North,0,0.0,-999.0,86,-99.99,,,-99.99,,2013-06-05 00:42:00,
2013-06-04 19:52:00,66.0,61.0,-100.00,North,0,0.0,-999.0,86,-99.99,,,-99.99,,2013-06-05 00:52:00,
2013-06-04 20:02:00,66.0,60.0,-100.00,North,0,0.0,-999.0,80,-99.99,,,-99.99,,2013-06-05 01:02:00,
2013-06-04 20:12:00,65.0,59.0,-100.00,North,0,0.0,-999.0,81,-99.99,,,-99.99,,2013-06-05 01:12:00,
2013-06-04 20:22:00,65.0,60.0,-100.00,North,0,0.0,-999.0,82,-99.99,,,-99.99,,2013-06-05 01:22:00,
2013-06-04 20:32:00,65.0,60.0,-100.00,North,0,0.0,-999.0,83,-99.99,,,-99.99,,2013-06-05 01:32:00,
2013-06-04 20:42:00,65.0,59.0,-100.00,North,0,0.0,-999.0,82,-99.99,,,-99.99,,2013-06-05 01:42:00,
2013-06-04 20:52:00,65.0,59.0,-100.00,North,0,0.0,-999.0,82,-99.99,,,-99.99,,2013-06-05 01:52:00,
2013-06-04 21:02:00,64.0,56.0,-100.00,North,0,0.0,-999.0,76,-99.99,,,-99.99,,2013-06-05 02:02:00,
2013-06-04 21:12:00,63.0,36.0,-100.00,North,0,0.0,-999.0,36,-99.99,,,-99.99,,2013-06-05 02:12:00,
2013-06-04 21:22:00,63.0,35.0,-100.00,North,0,0.0,-999.0,35,-99.99,,,-99.99,,2013-06-05 02:22:00,
2013-06-04 21:32:00,62.0,60.0,-100.00,North,0,0.0,-999.0,91,-99.99,,,-99.99,,2013-06-05 02:32:00,
2013-06-04 21:42:00,63.0,60.0,-100.00,North,0,0.0,-999.0,91,-99.99,,,-99.99,,2013-06-05 02:42:00,
2013-06-04 21:52:00,63.0,60.0,-100.00,North,0,0.0,-999.0,91,-99.99,,,-99.99,,2013-06-05 02:52:00,
2013-06-04 22:12:00,61.0,48.0,-100.00,North,0,0.0,-999.0,62,-99.99,,,-99.99,,2013-06-05 03:12:00,
2013-06-04 22:22:00,61.0,43.0,-100.00,North,0,0.0,-999.0,52,-99.99,,,-99.99,,2013-06-05 03:22:00,
2013-06-04 22:33:00,60.0,51.0,-100.00,North,0,0.0,-999.0,71,-99.99,,,-99.99,,2013-06-05 03:33:00,
2013-06-04 23:13:00,57.0,17.0,-100.00,North,0,0.0,-999.0,20,-99.99,,,-99.99,,2013-06-05 04:13:00,
2013-06-04 23:23:00,54.0,37.0,-100.00,North,0,0.0,-999.0,53,-99.99,,,-99.99,,2013-06-05 04:23:00,
2013-06-04 23:42:00,44.0,37.0,-100.00,North,0,0.0,-999.0,79,-99.99,,,-99.99,,2013-06-05 04:42:00,
2013-06-04 23:53:00,44.0,37.0,-100.00,North,0,0.0,-999.0,79,-99.99,,,-99.99,,2013-06-05 04:53:00,